AFR1180 LFPG-EGLL

Flight info

Callsign AFR1180
Flight time N/A
Altitude 24000
Route OPALE DCT KESAX DCT DIMAL DCT ALESO
Aircraft A320

Departure

Time N/A
Airport Charles de Gaulle International Airport (LFPG)

Arrival

Time 2026-05-07 19:01
Airport London Heathrow Airport (EGLL)
Time Latitude Longitude Altitude Speed Heading
2026-05-07 19:00 51.47684 -0.45469 88 ft 0 kts 176°
2026-05-07 19:04 51.47683 -0.45469 88 ft 1 kts 176°
2026-05-07 19:04 51.47622 -0.45467 88 ft 12 kts 180°
2026-05-07 19:05 51.47534 -0.45459 90 ft 13 kts 156°
2026-05-07 19:05 51.47506 -0.45280 92 ft 22 kts 89°
2026-05-07 19:05 51.47507 -0.45043 95 ft 21 kts 89°
2026-05-07 19:05 51.47508 -0.44793 91 ft 23 kts 87°
2026-05-07 19:06 51.47477 -0.44572 93 ft 20 kts 153°
2026-05-07 19:06 51.47163 -0.44551 86 ft 24 kts 179°
2026-05-07 19:06 51.47011 -0.44555 87 ft 20 kts 180°
2026-05-07 19:07 51.46875 -0.44556 90 ft 19 kts 180°
2026-05-07 19:07 51.46844 -0.44556 90 ft 0 kts 180°
2026-05-07 19:07 51.46805 -0.44555 90 ft 15 kts 179°
2026-05-07 19:08 51.46691 -0.44566 95 ft 16 kts 203°
2026-05-07 19:08 51.46653 -0.44658 95 ft 0 kts 233°
2026-05-07 19:10 51.46641 -0.44677 97 ft 11 kts 225°
2026-05-07 19:10 51.46556 -0.44802 94 ft 20 kts 222°
2026-05-07 19:10 51.46448 -0.44953 95 ft 22 kts 219°
2026-05-07 19:11 51.46385 -0.45043 93 ft 0 kts 222°
2026-05-07 19:13 51.46376 -0.45056 90 ft 3 kts 222°
2026-05-07 19:13 51.46352 -0.45091 90 ft 10 kts 223°
2026-05-07 19:13 51.46267 -0.45212 89 ft 21 kts 222°
2026-05-07 19:13 51.46155 -0.45367 90 ft 19 kts 213°
2026-05-07 19:14 51.46051 -0.45323 88 ft 16 kts 173°
2026-05-07 19:14 51.45922 -0.45330 84 ft 21 kts 181°
2026-05-07 19:14 51.45769 -0.45325 82 ft 23 kts 169°
2026-05-07 19:14 51.45674 -0.45148 84 ft 22 kts 93°
2026-05-07 19:15 51.45704 -0.44931 84 ft 17 kts 62°
2026-05-07 19:15 51.45754 -0.44922 81 ft 7 kts 332°
2026-05-07 19:15 51.45787 -0.44949 85 ft 2 kts 332°
2026-05-07 19:15 51.45791 -0.44952 85 ft 0 kts 332°